Weather History for Corpus Christi, TX

Change the Weather History Date:

Tuesday, November 4, 2014

  Actual Average Record
Temperature  
Mean Temperature 78 °F 70 °F  
Max Temperature 84 °F 80 °F 98 °F (1988)
Min Temperature 71 °F 60 °F 38 °F (1950)
Degree Days  
Heating Degree Days 0 1  
Month to date heating degree days 0 4  
Since 1 July heating degree days 0 14  
Cooling Degree Days 13 6  
Month to date cooling degree days 28 25  
Year to date cooling degree days 3609 3376  
Growing Degree Days 28 (Base 50)    
Moisture  
Dew Point 67 °F    
Average Humidity 73    
Maximum Humidity 87    
Minimum Humidity 58    
Precipitation  
Precipitation 0.00 in 0.09 in 0.88 in (2002)
Month to date precipitation 0.00 0.36  
Year to date precipitation 25.48 28.32  
Snow  
Snow 0.00 in - - ()
Month to date snowfall 0.0  
Since 1 July snowfall 0.0  
Since 1 September snowfall 0.0  
Snow Depth 0.00 in    
Sea Level Pressure  
Sea Level Pressure 30.02 in    
Wind  
Wind Speed 12 mph (SSE)    
Max Wind Speed 24 mph    
Max Gust Speed 32 mph    
Visibility 10 miles    
Events      
T = Trace of Precipitation, MM = Missing Value Source: NWS Daily Summary

Daily Weather History Graph

Daily Weather History Graph

Search for Another Location

Airport:

Trip Planner

Search our weather history database for the weather conditions in past years. The results will help you decide how hot, cold, wet, or windy it might be!

Date:

Astronomy

Nov. 04, 2014 Rise Set
Actual Time 6:43 AM CST 5:43 PM CST
Civil Twilight 6:18 AM CST 6:08 PM CST
Nautical Twilight 5:50 AM CST 6:35 PM CST
Astronomical Twilight 5:23 AM CST 7:03 PM CST
Moon 4:19 PM CST (11/4) 4:16 AM CST (11/4)
Length of Visible Light 11h 49m
Length of Day
11h 00m
Waxing Gibbous, 94% of the Moon is Illuminated
Nov 4
Waxing Gibbous
Nov 6
Full
Nov 14
Last Quarter
Nov 22
New
Nov 29
First Quarter

Hourly Weather History & Observations

Time (CST) Temp. Heat Index Dew Point Humidity Pressure Visibility Wind Dir Wind Speed Gust Speed Precip Events Conditions
12:51 AM 75.0 °F - 64.9 °F 71% 30.07 in 10.0 mi SSE 10.4 mph - N/A   Overcast
1:51 AM 75.9 °F - 64.9 °F 69% 30.05 in 10.0 mi SSE 10.4 mph - N/A   Overcast
2:51 AM 73.9 °F - 66.0 °F 76% 30.04 in 10.0 mi SSE 10.4 mph - N/A   Mostly Cloudy
3:51 AM 73.9 °F - 66.0 °F 76% 30.03 in 10.0 mi South 9.2 mph - N/A   Overcast
4:51 AM 73.9 °F - 66.0 °F 76% 30.02 in 10.0 mi SSE 8.1 mph - N/A   Overcast
5:51 AM 73.0 °F - 66.0 °F 79% 30.03 in 10.0 mi SSE 6.9 mph - N/A   Mostly Cloudy
6:51 AM 71.1 °F - 66.0 °F 84% 30.03 in 10.0 mi SE 5.8 mph - N/A   Mostly Cloudy
7:51 AM 73.0 °F - 66.9 °F 81% 30.04 in 10.0 mi SSE 4.6 mph - N/A   Mostly Cloudy
8:51 AM 79.0 °F - 66.9 °F 66% 30.06 in 10.0 mi South 12.7 mph - N/A   Mostly Cloudy
9:51 AM 82.0 °F 84.5 °F 66.9 °F 60% 30.06 in 10.0 mi SSE 23.0 mph 28.8 mph N/A   Mostly Cloudy
10:51 AM 81.0 °F 83.8 °F 68.0 °F 65% 30.04 in 10.0 mi SSE 19.6 mph 29.9 mph N/A   Mostly Cloudy
11:51 AM 81.0 °F 83.8 °F 68.0 °F 65% 30.03 in 10.0 mi SSE 18.4 mph 24.2 mph N/A   Mostly Cloudy
12:51 PM 82.0 °F 84.5 °F 66.9 °F 60% 29.99 in 10.0 mi SSE 20.7 mph 28.8 mph N/A   Mostly Cloudy
1:51 PM 82.0 °F 84.5 °F 66.9 °F 60% 29.97 in 10.0 mi SSE 24.2 mph 31.1 mph N/A   Mostly Cloudy
2:51 PM 81.0 °F 83.3 °F 66.9 °F 62% 29.97 in 10.0 mi SSE 16.1 mph - N/A   Mostly Cloudy
3:51 PM 80.1 °F 82.3 °F 66.9 °F 64% 29.96 in 10.0 mi SSE 19.6 mph 24.2 mph N/A   Mostly Cloudy
4:51 PM 79.0 °F - 66.9 °F 66% 29.97 in 10.0 mi SE 15.0 mph - N/A   Mostly Cloudy
5:51 PM 77.0 °F - 68.0 °F 74% 29.99 in 10.0 mi SE 11.5 mph - N/A   Mostly Cloudy
6:51 PM 75.9 °F - 70.0 °F 82% 30.00 in 10.0 mi SE 6.9 mph - N/A   Mostly Cloudy
7:51 PM 75.0 °F - 69.1 °F 82% 30.02 in 10.0 mi SE 6.9 mph - N/A   Overcast
8:51 PM 73.9 °F - 69.1 °F 85% 30.04 in 10.0 mi ESE 5.8 mph - N/A   Overcast
9:51 PM 75.0 °F - 69.1 °F 82% 30.05 in 10.0 mi SSE 5.8 mph - N/A   Overcast
10:51 PM 73.9 °F - 69.1 °F 85% 30.04 in 10.0 mi SE 5.8 mph - N/A   Overcast
11:51 PM 73.0 °F - 68.0 °F 84% 30.03 in 10.0 mi SSE 3.5 mph - N/A   Overcast